Terug naar catalogus

STARLINK-36120

ActiefCommunicatieVLEO
NORAD 67016·PAYLOAD·🇺🇸 United States

Gelanceerd Dec 10, 2025 vanaf Vandenberg Space Force Base

Loading…

Volgende Passages (komende 24 uur)

TLE

VersSource: CelesTrak SupGP

Epoch: Sep 15, 2026, 02:37 UTC

1 67016C 25293P   26258.10951389  .00065747  00000+0  55102-2 0  2581
2 67016  70.0016 336.8851 0003604 267.3349 339.3761 14.98293725    10

Volg STARLINK-36120 in realtime met AllMySat

Download on the App Store